Satellite: GO-32
Catalog number: 25397
Epoch time:      08255.79904811
Element set:     694
Inclination:      098.3587 deg
RA of node:       286.6581 deg
Eccentricity:    0.0001386
Arg of perigee:   029.0569 deg
Mean anomaly:     331.0678 deg
Mean motion:   14.23146928 rev/day
Decay rate:      -1.92e-06 rev/day^2
Epoch rev:           52853
Checksum:              348

Satellite: NO-44
Catalog number: 26931
Epoch time:      08255.83111072
Element set:     974
Inclination:      067.0526 deg
RA of node:       061.4483 deg
Eccentricity:    0.0007194
Arg of perigee:   266.5116 deg
Mean anomaly:     093.5143 deg
Mean motion:   14.29533131 rev/day
Decay rate:       1.37e-06 rev/day^2
Epoch rev:           36279
Checksum:              297

Satellite: SO-50
Catalog number: 27607
Epoch time:      08254.91726703
Element set:    0697
Inclination:      064.5590 deg
RA of node:       153.2733 deg
Eccentricity:    0.0086242
Arg of perigee:   262.8503 deg
Mean anomaly:     096.2771 deg
Mean motion:   14.71377919 rev/day
Decay rate:      -1.70e-06 rev/day^2
Epoch rev:           30758
Checksum:              327

Satellite: CO-55
Catalog number: 27844
Epoch time:      08254.87195301
Element set:    0394
Inclination:      098.7181 deg
RA of node:       261.9568 deg
Eccentricity:    0.0009033
Arg of perigee:   226.3589 deg
Mean anomaly:     133.6826 deg
Mean motion:   14.20595126 rev/day
Decay rate:       -1.0e-08 rev/day^2
Epoch rev:           26960
Checksum:              326

Satellite: CO-57
Catalog number: 27848
Epoch time:      08254.59981435
Element set:    0345
Inclination:      098.7185 deg
RA of node:       260.7698 deg
Eccentricity:    0.0008995
Arg of perigee:   233.0368 deg
Mean anomaly:     126.9981 deg
Mean motion:   14.20403400 rev/day
Decay rate:        6.0e-08 rev/day^2
Epoch rev:           26953
Checksum:              345

Satellite: AO-51
Catalog number: 28375
Epoch time:      08255.59004868
Element set:     195
Inclination:      098.0681 deg
RA of node:       275.2891 deg
Eccentricity:    0.0082976
Arg of perigee:   251.0939 deg
Mean anomaly:     108.1243 deg
Mean motion:   14.40617684 rev/day
Decay rate:       -4.0e-08 rev/day^2
Epoch rev:           22084
Checksum:              326

Satellite: CO-56
Catalog number: 28941
Epoch time:      08255.47511987
Element set:     367
Inclination:      098.1150 deg
RA of node:       018.2712 deg
Eccentricity:    0.0153924
Arg of perigee:   086.8517 deg
Mean anomaly:     275.0324 deg
Mean motion:   15.61036871 rev/day
Decay rate:     2.7991e-04 rev/day^2
Epoch rev:           14348
Checksum:              334

Satellite: CP3
Catalog number: 31128
Epoch time:      08255.68334645
Element set:     429
Inclination:      098.0335 deg
RA of node:       315.4317 deg
Eccentricity:    0.0104053
Arg of perigee:   067.7055 deg
Mean anomaly:     293.5138 deg
Mean motion:   14.51973487 rev/day
Decay rate:       -4.6e-07 rev/day^2
Epoch rev:            7448
Checksum:              311

Satellite: CP4
Catalog number: 31132
Epoch time:      08254.97697256
Element set:    0414
Inclination:      098.0334 deg
RA of node:       317.3308 deg
Eccentricity:    0.0086869
Arg of perigee:   062.5391 deg
Mean anomaly:     298.4575 deg
Mean motion:   14.55140159 rev/day
Decay rate:      -1.30e-06 rev/day^2
Epoch rev:           07442
Checksum:              314

Satellite: CO-65
Catalog number: 32785
Epoch time:      08254.42969941
Element set:    0156
Inclination:      097.9861 deg
RA of node:       314.1083 deg
Eccentricity:    0.0014070
Arg of perigee:   216.3783 deg
Mean anomaly:     143.6481 deg
Mean motion:   14.81391049 rev/day
Decay rate:       2.55e-06 rev/day^2
Epoch rev:           02002
Checksum:              306

/EX
SB KEPS @ AMSAT  $ORB08255.W
Orbital Elements  08255.WEATHER

HR AMSAT ORBITAL ELEMENTS FOR WEATHER SATELLITES
FROM WA5QGD FORT WORTH,TX September 11, 2008
Send Subscribe/unsubscribe to KEPS at 
http://www.amsat.org/mailman/listinfo/keps
BID: ORB08255.W
TO ALL RADIO AMATEURS BT

Satellite: NOAA-10
Catalog number: 16969
Epoch time:      08254.67529674
Element set:    0281
Inclination:      098.7200 deg
RA of node:       276.4624 deg
Eccentricity:    0.0011641
Arg of perigee:   294.8848 deg
Mean anomaly:     065.1137 deg
Mean motion:   14.27367562 rev/day
Decay rate:        9.0e-08 rev/day^2
Epoch rev:           14363
Checksum:              325

Satellite: NOAA-11
Catalog number: 19531
Epoch time:      08254.87691512
Element set:    0314
Inclination:      098.7962 deg
RA of node:       343.0008 deg
Eccentricity:    0.0011371
Arg of perigee:   180.7090 deg
Mean anomaly:     179.4089 deg
Mean motion:   14.14877223 rev/day
Decay rate:       1.91e-06 rev/day^2
Epoch rev:           03002
Checksum:              287

Satellite: NOAA-12
Catalog number: 21263
Epoch time:      08254.97225860
Element set:    0856
Inclination:      098.7713 deg
RA of node:       256.9319 deg
Eccentricity:    0.0011484
Arg of perigee:   235.3833 deg
Mean anomaly:     124.6264 deg
Mean motion:   14.25545290 rev/day
Decay rate:        4.0e-08 rev/day^2
Epoch rev:           90061
Checksum:              303

